Location: Unspecified
(35.6961°N, 0.0000°E)
Time: 04:18:54
(UTC+00:00)

Vanguard 2 Rocket - Pass Details

Date: 27 May 2019
Orbit: 555 x 3326 km, 32.9° (Epoch: 25 June)

Event Time Altitude Azimuth Distance (km) Brightness Sun altitude
Rises 07:54:28 0° 272° (W) 7,017 10.9 35.6°
Reaches altitude 10° 07:59:38 10° 271° (W) 5,721 10.6 36.7°
Maximum altitude 08:15:45 76° 190° (S) 2,000 9.3 39.9°
Drops below altitude 10° 08:24:40 10° 106° (ESE) 3,362 10.9 41.8°
Sets 08:26:56 0° 104° (ESE) 4,064 11.0 42.2°
